Location: Unspecified
(53.5511°N, 9.9937°E)
Time: 14:05:35
(UTC+00:00)

ISS - Visible Passes

Search period start: 18 September 2018 00:00
Search period end: 28 September 2018 00:00
Orbit: 402 x 408 km, 51.6° (Epoch: 18 September)

Date Brightness Start Highest point End Pass type
(mag) Time Alt. Az. Time Alt. Az. Time Alt. Az.
23 Sep -1.8 19:10:34 10° SSW 19:11:51 18° S 19:11:51 18° S visible
24 Sep -2.0 18:19:15 10° S 18:21:27 17° SE 18:22:16 15° SE visible
24 Sep -1.3 19:54:14 10° WSW 19:54:57 15° SW 19:54:57 15° SW visible
25 Sep -3.0 19:02:24 10° SW 19:05:12 35° S 19:05:12 35° S visible
26 Sep -2.6 18:10:42 10° SSW 18:13:32 27° SSE 18:15:19 17° ESE visible
26 Sep -1.9 19:46:27 10° WSW 19:47:59 25° WSW 19:47:59 25° WSW visible
27 Sep -3.6 18:54:28 10° WSW 18:57:41 50° SSE 18:58:02 47° SE visible
